www.pogodaiklimat.ru

Погода и климат >> Архив погоды >> Бангладеш >> Ситакунду


ПОГОДА в Ситакунду

  • Прогноз погоды в Ситакунду
  • Монитор погоды в Ситакунду

АРХИВ ПОГОДЫ в Ситакунду

Время (UTC), дата Ветер
(напр.,м/с)
 
Видим.   Явления Облачность Т
(С)
Тd
(С)
f
(%)
Тe
(С)
Тes
(С)
Комфортность P
(гПа)
Po
(гПа)
Тmin
(С)
Tmax
(С)
R
(мм)
R24
(мм)
S
(см)
15 15.09 штиль 0 6000 м мгла 3/0
[Ci fib]
+27.4 +26.0 92 +41 +41 опасность
перегрева
1006.3 1005.4
18 15.09 штиль 0 5000 м мгла 6/0
[Cc]
+27.0 +27.0 100 +42 +42 опасность
перегрева
1006.9 1006.0
00 16.09 штиль 0 5000 м мгла 8/0
[Ac trans]
+26.5 +26.0 97 +40 +40 очень
душно
1006.6 1005.7
03 16.09 штиль 0 6000 м 10/4 300 м
[Cb calv As op]
+30.0 +27.0 84 +47 +49 опасность
перегрева
1007.5 1006.7 +26.3
09 16.09 штиль 0 7000 м 3/0
[Cc]
+32.0 +26.0 71 +48 +59 опасность
перегрева
1004.2 1003.4
12 16.09 штиль 0 5000 м мгла 3/0
[Cc]
+28.5 +28.0 97 +47 +47 опасность
перегрева
1003.3 1002.5 +33.0
15 16.09 штиль 0 4500 м мгла 1/0
[Cc]
+27.0 +26.0 94 +40 +40 очень
душно
1006.9 1006.0
00 17.09 штиль 0 4500 м мгла 5/0
[Cc]
+26.3 +26.0 98 +39 +39 очень
душно
1006.6 1005.7
03 17.09 штиль 0 5000 м мгла 3/3 540 м
[Sc diur, vesp]
+31.0 +26.0 75 +46 +56 опасность
перегрева
1008.5 1007.7 +26.1
06 17.09 штиль 0 6000 м 3/0 300 м
[Ci fib]
+34.0 +25.0 59 +47 +72 опасность
перегрева
1007.8 1006.9
09 17.09 штиль 0 7000 м ясно +34.0 +26.0 63 +50 +62 опасность
перегрева
1005.2 1004.4
12 17.09 штиль 0 5000 м мгла 3/0
[Cc]
+30.4 +27.0 82 +48 +48 опасность
перегрева
1006.2 1005.4 +35.0
15 17.09 штиль 0 4000 м мгла ясно +27.5 +27.0 97 +43 +43 опасность
перегрева
1007.8 1006.9
18 17.09 штиль 0 4000 м мгла 5/0
[Ac trans]
+27.5 +27.0 97 +43 +43 опасность
перегрева
1007.4 1006.6
00 18.09 штиль 0 4000 м гроза, ливневой дождь 8/5 300 м
[Cb calv As op]
+25.9 +25.0 95 +37 +37 очень
душно
1008.9 1008.1 0.0
03 18.09 штиль 0 6000 м {дождь} 3/0
[Cc]
+31.5 +24.0 65 +43 +56 опасность
перегрева
1010.8 1010.0 +25.8
06 18.09 штиль 0 7000 м {дождь} 5/0
[Cc]
+34.5 +25.0 58 +48 +71 опасность
перегрева
1009.7 1008.9 0.2
09 18.09 штиль 0 7000 м ясно +34.5 +28.0 69 +55 +67 опасность
перегрева
1007.5 1006.7
12 18.09 штиль 0 5000 м мгла 1/0
[Cc]
+30.0 +28.0 89 +50 +50 опасность
перегрева
1007.6 1006.7 +35.0
15 18.09 штиль 0 5000 м мгла ясно +27.5 +27.0 97 +43 +43 опасность
перегрева
1010.3 1009.4
18 18.09 штиль 0 5000 м мгла 8/0
[Cc]
+27.0 +26.0 94 +40 +40 очень
душно
1010.5 1009.7
00 19.09 штиль 0 5000 м мгла 8/0
[Ac trans Ci sp]
+26.5 +26.0 97 +40 +40 очень
душно
1009.8 1009.0
03 19.09 штиль 0 6000 м мгла 5/0
[Cc]
+32.0 +27.0 75 +50 +62 опасность
перегрева
1011.8 1010.9 +26.5
06 19.09 штиль 0 7000 м 4/4 540 м
[Sc diur, vesp]
+34.3 +28.0 70 +55 +70 опасность
перегрева
1009.4 1008.6
09 19.09 штиль 0 7000 м 4/4 540 м
[Sc diur, vesp]
+35.0 +29.0 71 +58 +66 опасность
перегрева
1006.5 1005.7
12 19.09 штиль 0 5000 м мгла 5/0
[Cc]
+30.5 +30.0 97 +56 +56 опасность
перегрева
1007.5 1006.7 +35.5
15 19.09 штиль 0 6000 м зарница 10/4 300 м
[Cb calv As op]
+28.5 +27.0 92 +45 +45 опасность
перегрева
1009.5 1008.7
18 19.09 штиль 0 6000 м зарница 10/5 540 м
[Cb calv As trans]
+28.0 +26.0 89 +42 +42 опасность
перегрева
1010.0 1009.2
00 20.09 штиль 0 4500 м мгла 10/5 300 м
[Cb calv As op]
+26.5 +26.0 97 +40 +40 очень
душно
1008.7 1007.9
03 20.09 штиль 0 5000 м мгла 10/4 300 м
[Cb calv As op]
+30.0 +27.0 84 +47 +49 опасность
перегрева
1010.2 1009.4 +26.3
06 20.09 штиль 0 7000 м 5/0
[Cc]
+33.0 +26.0 67 +49 +72 опасность
перегрева
1008.5 1007.7
09 20.09 штиль 0 7000 м 4/4 540 м
[Sc diur, vesp]
+34.0 +28.0 71 +55 +62 опасность
перегрева
1005.0 1004.2
12 20.09 штиль 0 5000 м мгла 3/0
[Ci fib]
+30.0 +28.0 89 +50 +50 опасность
перегрева
1005.6 1004.8 +34.5
15 20.09 штиль 0 5000 м мгла 3/0
[Cc]
+28.0 +27.0 94 +44 +44 опасность
перегрева
1008.7 1007.9
18 20.09 штиль 0 5000 м мгла 6/0
[Ac trans]
+28.0 +27.0 94 +44 +44 опасность
перегрева
1008.8 1007.7
00 21.09 штиль 0 4500 м 10/6 300 м
[Cb calv As op]
+26.8 +26.0 95 +40 +40 очень
душно
1007.1 1006.2
03 21.09 штиль 0 5000 м слаб. дождь 10/5 300 м
[Cb calv As op]
+26.6 +26.0 97 +40 +41 очень
душно
1009.7 1008.8 +26.0
06 21.09 штиль 0 6000 м {дождь} 10/5 300 м
[Cb calv As op]
+30.0 +27.0 84 +47 +50 опасность
перегрева
1007.8 1006.9 10
09 21.09 штиль 0 6000 м {дождь} 10/5 300 м
[Cb calv As op]
+30.0 +27.0 84 +47 +48 опасность
перегрева
1007.8 1006.9 10
12 21.09 штиль 0 5000 м мгла 4/0
[Cc]
+29.0 +28.0 94 +48 +48 опасность
перегрева
1006.7 1005.9 +33.5
15 21.09 штиль 0 5000 м мгла 3/0
[Cc]
+27.5 +27.0 97 +43 +43 опасность
перегрева
1008.8 1007.9
18 21.09 штиль 0 5000 м мгла 5/0
[Cc]
+27.5 +27.0 97 +43 +43 опасность
перегрева
1009.2 1008.4
00 22.09 штиль 0 5000 м мгла 4/0
[Ci fib]
+26.1 +25.0 94 +37 +37 очень
душно
1009.6 1008.7
03 22.09 штиль 0 6000 м мгла 3/0
[Cc]
+32.5 +26.0 69 +48 +61 опасность
перегрева
1010.8 1009.9 +26.0
06 22.09 штиль 0 7000 м 4/4 540 м
[Sc diur, vesp]
+34.5 +25.0 58 +48 +63 опасность
перегрева
1008.5 1007.7
09 22.09 ЮЗ 1 7000 м 6/0 300 м
[Ci sp]
+34.0 +27.0 67 +52 +61 опасность
перегрева
1006.5 1005.7

 

Местоположение метеостанции Ситакунду (Бангладеш): широта 22.58 долгота 91.70 высота над уровнем моря 44 м.

В архиве по умолчанию представлена погода в Ситакунду за последнюю неделю. Архивные данные за месяц целиком и за предыдущие месяцы, начиная с января 2011 года, Вы можете получить, выбрав интересующий диапазон дат из раскрывающегося списка и нажав кнопку "Ввод!".


*Определитесь, кто Вы:
робот инопланетянин человек

Внимание! Время в таблицах - всемирное. Для получения местного времени необходимо прибавить поправку, которая равна 6.5 ч.

Смотрите также архив погоды в соседних городах и на ближайших метеорологических станциях:

Погода в Сандвипе (Бангладеш) (30 км)
Погода в Читтагонге (Бангладеш) (37 км)
Погода в Рангамати (Бангладеш) (52 км)
Погода в Фени (Бангладеш) (58 км)
Погода в Хатии (Бангладеш) (64 км)
Погода в Маиидиcурте (Бангладеш) (69 км)
Погода в Кутапдии (Бангладеш) (86 км)
Погода в Бхоле (Бангладеш) (108 км)
Погода в Комилле (Бангладеш) (109 км)
Погода в Чандпуре (Бангладеш) (128 км)

Пояснения к столбцам:

Ветер - указаны скорость ветра в м/с - средняя за 10 мин, порывы в срок и между сроками (в фигурных скобках) и направление, откуда дует ветер: С - северный, СВ - северо-восточный, В - восточный, ЮВ - юго-восточный, Ю - южный, ЮЗ - юго-западный, З - западный, СЗ - северо-западный.
Видимость - горизонтальная дальность видимости в метрах или километрах. При видимости от 1 до 10 км при отсутствии осадков обычно наблюдается дымка, при ухудшении видимости до 1 км и менее - туман. В сухую погоду видимость может ухудшаться дымом, пылью или мглою.
Явления - указаны атмосферные явления, наблюдавшиеся в срок или в последний час перед сроком; фигурными скобками обозначены явления, наблюдавшиеся между сроками (за 1-3 часа до срока); квадратными скобками обозначены град или гололедные отложения с указанием их диаметра в мм.
Облачность - указаны через наклонную черту общая и нижняя облачность в баллах и высота нижней границы облаков в метрах; квадратными скобками обозначены формы облаков: Ci - перистые, Cs - перисто-слоистые, Cc - перисто-кучевые, Ac - высококучевые, As - высокослоистые, Sc - слоисто-кучевые, Ns - слоисто-дождевые, Cu - кучевые, Cb - кучево-дождевые. Подробнее классификацию облаков см. в Атласе облаков (PDF).
T - Температура воздуха - температура, измеренная на высоте 2 м над землей.
Td - Температура точки росы - температура, при понижении до которой содержащийся в воздухе водяной пар достигнет насыщения.
f - Относительная влажность воздуха - влажноcть воздуха, измеренная на высоте 2 м над землей.
Te - Эффективная температура - температура, которую ощущает одетый по сезону человек в тени. Характеристика душности погоды. При расчете учитывается влияние влажности воздуха и скорости ветра на теплоощущения человека.
Tes - Эффективная температура на солнце - температура, которую ощущает человек, с поправкой на солнечный нагрев. Характеристика знойности погоды. Зависит от высоты солнца над горизонтом, облачности и скорости ветра. Ночью, в пасмурную погоду, а также при ветре 12 м/с и более поправка равна нулю.
P - Атмосферное давление - приведенное к уровню моря атмосферное давление.
Po - Атмосферное давление - измеренное на уровне метеостанции атмосферное давление.
Tmin - Минимальная температура - минимум температуры воздуха на высоте 2 м над землей.
Tmax - Максимальная температура - максимум температуры воздуха на высоте 2 м над землей.
R - Количество осадков - Количество выпавших осадков за период времени, мм. При наведении курсора мыши на число - период времени, за который выпало указанное количество осадков.
R24 - Количество осадков - Количество выпавших осадков за 24 часа, мм.
S - Снежный покров - Высота снежного покрова, см. При наведении курсора мыши на число - состояние снежного покрова и степень покрытия местности в баллах.